Regional Weather Roundup
Issued by NWS Spokane, WA

Home | Current Version | Previous Version | Text Only | Print | Product List | Glossary On
Versions: 1 2 3 4 5 6 7 8 9 10 11 12 13 14 15 16 17 18 19 20 21 22 23 24 25 26 27 28 29 30 31 32 33 34 35 36 37 38 39 40 41 42 43 44 45 46 47 48 49 50
000
NZUS01 KOTX 302310
RWROTX
EASTERN WASHINGTON/NORTHERN IDAHO ROUNDUP
NATIONAL WEATHER SERVICE, SPOKANE WA
400 PM PDT MON MAY 30 2016

Note: "fair" indicated few or no clouds below 12,000 feet with no
significant weather and/or obstructions to visibility.

...NORTHEAST WASHINGTON AND NORTHERN IDAHO PANHANDLE...

CITY           SKY/WX    TMP DP  RH WIND       PRES   REMARKS
SPOKANE INTL   MOSUNNY   70  28  21 W13       30.17F
SPOKANE DOWNTO MOSUNNY   72  34  24 W9        30.17F
COEUR D ALENE  SUNNY     70  36  28 SW10      30.15F
DEER PARK      SUNNY     69  33  26 VRB6      30.17F
SANDPOINT      MOSUNNY   66  37  34 E6        30.15F
BONNERS FERRY  FAIR      66  45  45 NW8       30.15F

...SOUTHEAST WASHINGTON AND SOUTHERN IDAHO PANHANDLE...

CITY           SKY/WX    TMP DP  RH WIND       PRES   REMARKS
WALLA WALLA    SUNNY     73  33  23 N5        30.17F
PULLMAN/MOSCOW SUNNY     67  34  29 N6        30.21F
LEWISTON       SUNNY     74  31  20 W7        30.16F
LOWELL           N/A     74  36  25 VRB3      30.14F

...COLUMBIA BASIN...

CITY           SKY/WX    TMP DP  RH WIND       PRES   REMARKS
EPHRATA        SUNNY     74  32  21 VRB3      30.15F
MOSES LAKE     SUNNY     75  31  19 MISG      30.17F
TRI CITIES     SUNNY     77  34  21 CALM      30.17F
HERMISTON      SUNNY     77  33  20 VRB3      30.15F
PENDLETON      SUNNY     71  30  21 E6        30.16F

...EAST SLOPES CASCADES...

CITY           SKY/WX    TMP DP  RH WIND       PRES   REMARKS
THE DALLES     SUNNY     80  32  17 S9        30.12F
YAKIMA         SUNNY     78  26  14 CALM      30.17F
ELLENSBURG     SUNNY     77  31  18 CALM      30.16F
STAMPEDE PASS  SUNNY     61  38  42 VRB5      30.25S
WENATCHEE      SUNNY     75  28  17 SE8       30.14F
OMAK           SUNNY     73  27  18 SW3       30.15F

...SOUTHERN BRITISH COLUMBIA...

CITY           SKY/WX    TMP DP  RH WIND       PRES   REMARKS
PENTICTON      MOSUNNY   72  39  30 N15       30.16F
CASTLEGAR      PTSUNNY   70  41  35 VRB6      30.15S
CRANBROOK      MOSUNNY   63  34  34 VRB9      30.13S

...WESTERN MONTANA...

CITY           SKY/WX    TMP DP  RH WIND       PRES   REMARKS
MISSOULA       MOSUNNY   70  32  24 N9        30.12F

...NEIGHBORING CITIES...

CITY           SKY/WX    TMP DP  RH WIND       PRES   REMARKS
SEATTLE        PTSUNNY   72  42  34 N10       30.24F
CALGARY        MOSUNNY   59  34  38 N25G33    30.15R



USA.gov is the U.S. government's official web portal to all federal, state and local government web resources and services.